[[{"header":{"parameterUnit":"m.s-1","parameterCategory":1,"la1":30.2991,"la2":30.254,"lo1":-89.0895,"lo2":-89.0444,"dx":0.0017,"dy":0.0017,"nx":28,"ny":28,"refTime":"2023-01-27T15:00:00:Z","depth":0,"parameterNumber":2,"parameterNumberName":"U-component_of_WINDS"},"data":[0,0,0,0,0,0,0,0,0,0,0,0,0,0,0,0,0,0,0,0,0,0,0,0,0,0,0,0,0,0,0,0,0,0,0,0,0,0,0,0,0,0,0,0,0,0,0,0,0,0,0,0,0,0,0,0,0,0,-3.8327,-3.8329,0,-3.8466,-3.8468,-3.8469,-3.8479,-3.8478,-3.8476,-3.8475,-3.8617,-3.8622,-3.8627,0,0,0,0,0,0,0,0,0,0,0,0,0,-3.8072,-3.8076,-3.8327,-3.8329,-3.8331,-3.8466,-3.8468,-3.847,-3.848,-3.8478,-3.8476,-3.8474,-3.8615,-3.8621,-3.8627,0,0,0,0,0,0,0,0,0,0,0,0,0,-3.8194,-3.8078,-3.8327,-3.8352,-3.8356,-3.8465,-3.8468,-3.847,-3.848,-3.8478,-3.8475,-3.8473,-3.8613,-3.8621,-3.8628,-3.8722,0,0,-3.8652,-3.8655,0,0,0,0,0,0,0,0,-3.8187,-3.8203,-3.8347,-3.835,-3.8355,-3.8453,-3.843,-3.8555,-3.8481,-3.8433,-3.8475,-3.8472,-3.8564,-3.8576,-3.8607,-3.8729,-3.8735,-3.8653,-3.8657,-3.8661,-3.8663,0,0,0,0,0,0,0,-3.8178,-3.8197,-3.8382,-3.8349,-3.8354,-3.8357,-3.8371,-3.8453,-3.851,-3.8437,-3.8438,-3.8454,-3.8566,-3.8599,-3.861,-3.8737,-3.8653,-3.8659,-3.8664,-3.8667,-3.8943,-3.8946,0,0,0,0,0,0,-3.8165,-3.819,-3.8378,-3.8386,-3.8263,-3.8363,-3.838,-3.8424,-3.8509,-3.8519,-3.8456,-3.8454,-3.8587,-3.8601,-3.8615,-3.873,-3.8661,-3.8668,-3.8673,-3.8941,-3.8944,-3.8947,0,0,0,0,0,0,-3.8159,-3.8182,-3.8372,-3.8289,-3.8313,-3.837,-3.8419,-3.8428,-3.8461,-3.8523,-3.8533,-3.848,-3.8586,-3.8604,-3.8696,-3.8735,-3.8672,-3.8679,-3.8938,-3.8942,-3.8946,-3.8961,0,0,0,0,0,0,-3.8152,-3.818,-3.8216,-3.8289,-3.8317,-3.845,-3.8422,-3.8432,-3.8475,-3.8473,-3.8548,-3.8558,-3.8585,-3.8684,-3.8703,-3.8745,-3.8685,-3.8934,-3.894,-3.8944,-3.8957,-3.8965,-3.8972,0,0,0,0,0,-3.8143,-3.8215,-3.8217,-3.824,-3.8364,-3.8452,-3.8468,-3.8498,-3.8478,-3.8514,-3.8555,-3.8556,-3.8728,-3.8693,-3.8715,-3.876,-3.8932,-3.8938,-3.8944,-3.8954,-3.8964,-3.8972,0,0,0,0,0,0,-3.8144,-3.8225,-3.8229,-3.8326,-3.8382,-3.8454,-3.8501,-3.8507,-3.857,-3.8566,-3.8601,-3.8618,-3.8708,-3.8743,-3.8703,-3.8855,-3.8828,-3.8839,-3.8828,-3.8838,-3.8845,-3.8834,-3.8691,0,0,0,0,0,-3.8155,-3.822,-3.8288,-3.8367,-3.8395,-3.8443,-3.8483,-3.8501,-3.8561,-3.8584,-3.8631,-3.8689,-3.8756,-3.8799,-3.8865,-3.8964,-3.898,-3.9005,-3.9012,-3.9018,-3.9026,-3.9081,-3.9092,-3.8967,-3.8967,-3.8966,0,0,-3.8179,-3.8232,-3.8271,-3.8369,-3.8414,-3.8481,-3.8463,-3.8534,-3.8584,-3.8595,-3.8684,-3.8721,-3.8787,-3.8882,-3.8927,-3.8915,-3.9065,-3.9026,-3.903,-3.9035,-3.9088,-3.91,-3.911,-3.8971,-3.897,-3.8969,0,0,-3.8257,-3.8304,-3.8375,-3.8421,-3.8491,-3.8523,-3.854,-3.8611,-3.8636,-3.8725,-3.8735,-3.8795,-3.891,-3.8957,-3.8996,-3.9094,-3.9097,-3.9114,-3.9152,-3.9204,-3.9214,-3.9223,-3.9256,-3.9268,-3.9123,-3.9123,-3.9123,0,-3.8278,-3.8379,-3.8411,-3.8482,-3.8524,-3.8539,-3.8611,-3.8654,-3.8742,-3.8771,-3.8756,-3.8901,-3.8948,-3.9054,-3.9077,-3.9109,-3.9129,-3.9105,-3.921,-3.922,-3.9228,-3.926,-3.9273,-3.9124,-3.9124,-3.9124,-3.9124,0,-3.8401,-3.8471,-3.852,-3.8603,-3.8652,-3.8723,-3.8766,-3.8812,-3.8827,-3.886,-3.8951,-3.9008,-3.9084,-3.9111,-3.9127,-3.922,-3.921,-3.9203,-3.9176,-3.9241,-3.9272,-3.9285,-3.9126,-3.9126,-3.9125,-3.9125,0,0,-3.848,-3.8582,-3.8599,-3.8637,-3.8716,-3.8771,-3.8843,-3.8918,-3.8956,-3.9017,-3.9078,-3.9176,-3.9169,-3.9214,-3.9235,-3.9281,-3.9354,-3.9268,-3.927,-3.928,-3.9459,-3.9462,-3.9476,-3.9357,-3.936,-3.9362,-3.9453,0,-3.8565,-3.8694,-3.8725,-3.8835,-3.8899,-3.8915,-3.8978,-3.9033,-3.9067,-3.9127,-3.9164,-3.9233,-3.922,-3.9247,-3.9294,-3.9335,-3.9389,-3.9329,-3.9413,-3.9416,-3.9394,-3.9493,-3.9496,-3.9579,-3.9465,-3.9467,-3.9469,0,-3.8681,-3.8744,-3.886,-3.893,-3.8958,-3.9014,-3.9086,-3.9144,-3.9207,-3.9228,-3.9278,-3.9295,-3.9371,-3.9342,-3.9447,-3.9405,-3.9442,-3.9468,-3.9472,-3.9479,-3.9444,-3.95,-3.9606,-3.9618,-3.9489,-3.9487,-3.9486,0,-3.8725,-3.8839,-3.8923,-3.8955,-3.904,-3.9079,-3.9116,-3.9177,-3.9221,-3.9284,-3.9312,-3.9384,-3.9422,-3.9478,-3.9513,-3.9489,-3.9615,-3.9589,-3.9634,-3.9633,-3.9657,-3.9655,-3.9769,-3.9685,-3.9685,-3.9685,-3.9685,0,-3.8815,-3.8885,-3.8944,-3.8995,-3.9074,-3.9111,-3.9188,-3.9226,-3.928,-3.9339,-3.9358,-3.9413,-3.9458,-3.952,-3.9548,-3.963,-3.9648,-3.9667,-3.9673,-3.9664,-3.9661,-3.9687,-3.9681,-3.9688,-3.9687,-3.9687,-3.9686,0,-3.8876,-3.8918,-3.9011,-3.9084,-3.9104,-3.9159,-3.9222,-3.9272,-3.9308,-3.9382,-3.9402,-3.9457,-3.953,-3.9572,-3.9665,-3.9684,-3.9775,-3.978,-3.9753,-3.9755,-3.9797,-3.9792,-3.9929,-3.9949,-3.9854,-3.9855,-3.9856,0,-3.8929,-3.8983,-3.9063,-3.9104,-3.9141,-3.9207,-3.9252,-3.9291,-3.9336,-3.9413,-3.9455,-3.9529,-3.9591,-3.9707,-3.9756,-3.9827,-3.9832,-3.9875,-3.9842,-3.9831,-3.983,-3.9825,-3.9831,-3.988,-3.9881,-3.9881,-3.9882,0,-3.9019,-3.9037,-3.9101,-3.9172,-3.9225,-3.9283,-3.934,-3.9373,-3.9421,-3.9472,-3.9547,-3.9595,-3.969,-3.9763,-3.9839,-3.9877,-3.9888,-3.9893,-3.9906,-3.9896,-3.9877,-3.9886,-3.9766,-3.9888,-3.9888,-3.9887,-3.9887,-3.9887,-3.9076,-3.9125,-3.9188,-3.9258,-3.9306,-3.936,-3.9411,-3.9453,-3.9516,-3.9596,-3.9616,-3.9695,-3.9758,-3.986,-3.9901,-3.9963,-3.9955,-3.9976,-3.9981,-3.9984,-3.9985,-3.987,-3.9978,-3.9977,-3.9977,-3.9977,-3.9977,0,-3.9165,-3.9207,-3.9271,-3.9351,-3.9407,-3.9413,-3.9478,-3.9523,-3.9592,-3.9651,-3.9711,-3.9798,-3.987,-3.9924,-3.9998,-4.0038,-4.0044,-4.0055,-4.0052,-4.006,-3.9988,-3.9968,-4.0049,-4.0049,-4.0049,-4.0049,-4.0049,-4.0049,-3.9217,-3.93,-3.9326,-3.9433,-3.9475,-3.9552,-3.9588,-3.9638,-3.9684,-3.978,-3.984,-3.9876,-3.9933,-4.0011,-4.0077,-4.0092,-4.0117,-4.0127,-4.0142,-4.0073,-4.0065,-4.0058,-4.0039,-4.0133,-4.0133,-4.0208,-4.0209,-4.0209]},{"header":{"parameterUnit":"m.s-1","parameterCategory":1,"la1":30.2991,"la2":30.254,"lo1":-89.0895,"lo2":-89.0444,"dx":0.0017,"dy":0.0017,"nx":28,"ny":28,"refTime":"2023-01-27T15:00:00:Z","depth":0,"parameterNumber":3,"parameterNumberName":"V-component_of_WINDS"},"data":[0,0,0,0,0,0,0,0,0,0,0,0,0,0,0,0,0,0,0,0,0,0,0,0,0,0,0,0,0,0,0,0,0,0,0,0,0,0,0,0,0,0,0,0,0,0,0,0,0,0,0,0,0,0,0,0,0,0,2.3346,2.3347,0,2.3456,2.3457,2.3458,2.3488,2.3487,2.3487,2.3486,2.3597,2.3601,2.3604,0,0,0,0,0,0,0,0,0,0,0,0,0,2.3162,2.3165,2.3346,2.3347,2.3349,2.3456,2.3457,2.3459,2.3488,2.3487,2.3487,2.3486,2.3596,2.36,2.3604,0,0,0,0,0,0,0,0,0,0,0,0,0,2.3254,2.3167,2.3346,2.3376,2.338,2.3455,2.3457,2.3459,2.3488,2.3487,2.3486,2.3485,2.3595,2.36,2.3605,2.3657,0,0,2.3621,2.3624,0,0,0,0,0,0,0,0,2.3249,2.3261,2.337,2.3374,2.3379,2.3457,2.3433,2.3525,2.3489,2.3447,2.3486,2.3485,2.3551,2.356,2.3583,2.3662,2.3667,2.3622,2.3625,2.3627,2.3629,0,0,0,0,0,0,0,2.3242,2.3256,2.3389,2.3372,2.3377,2.3385,2.3397,2.3451,2.3503,2.3451,2.3453,2.3466,2.3553,2.3578,2.3586,2.3669,2.3622,2.3626,2.363,2.3632,2.38,2.3801,0,0,0,0,0,0,2.3231,2.3251,2.3386,2.3393,2.331,2.3389,2.3402,2.3433,2.3503,2.3512,2.3466,2.3467,2.3569,2.3579,2.359,2.3658,2.3627,2.3632,2.3635,2.3799,2.3801,2.3802,0,0,0,0,0,0,2.3227,2.3243,2.3381,2.3322,2.3341,2.3393,2.3427,2.3436,2.346,2.3515,2.3524,2.3482,2.3569,2.3582,2.3641,2.3662,2.3635,2.364,2.3797,2.3799,2.3801,2.3793,0,0,0,0,0,0,2.3221,2.3241,2.3261,2.3323,2.3344,2.3431,2.3429,2.3438,2.3469,2.3471,2.3531,2.3541,2.3569,2.3633,2.3646,2.3669,2.3644,2.3796,2.3798,2.3801,2.3792,2.3795,2.3797,0,0,0,0,0,2.3215,2.3253,2.3262,2.3278,2.337,2.3432,2.3444,2.3476,2.3471,2.3492,2.3528,2.3539,2.3657,2.3639,2.3654,2.3679,2.3795,2.3798,2.38,2.3791,2.3794,2.3797,0,0,0,0,0,0,2.3191,2.3262,2.3272,2.3332,2.3376,2.3437,2.3464,2.3478,2.3524,2.3524,2.3561,2.3575,2.3632,2.3661,2.3639,2.3734,2.3726,2.3732,2.3714,2.3717,2.372,2.3712,2.3648,0,0,0,0,0,2.3193,2.3238,2.3297,2.3344,2.3366,2.3411,2.3439,2.3461,2.3507,2.3526,2.3566,2.3611,2.3659,2.3689,2.3736,2.3796,2.3811,2.382,2.3823,2.3825,2.383,2.3867,2.3873,2.3811,2.3811,2.3811,0,0,2.3197,2.3241,2.3267,2.334,2.3377,2.3423,2.3426,2.3474,2.3509,2.3533,2.3592,2.3623,2.3676,2.3736,2.3765,2.3762,2.385,2.3828,2.3829,2.3834,2.387,2.3876,2.3881,2.3813,2.3813,2.3813,0,0,2.3229,2.3266,2.3311,2.3348,2.3404,2.3435,2.3445,2.3505,2.3527,2.3587,2.3607,2.3649,2.3729,2.3767,2.3797,2.3846,2.3859,2.386,2.3874,2.3909,2.3914,2.3919,2.3939,2.3945,2.3865,2.3865,2.3865,0,2.3227,2.3298,2.3332,2.338,2.3413,2.3438,2.3484,2.3518,2.3586,2.3609,2.3605,2.3709,2.3746,2.3817,2.383,2.3852,2.3867,2.3854,2.3911,2.3916,2.3921,2.394,2.3947,2.3865,2.3865,2.3865,2.3865,0,2.3294,2.3343,2.3372,2.3439,2.3475,2.3521,2.3564,2.3596,2.3614,2.3645,2.3708,2.3753,2.3811,2.3829,2.3847,2.3904,2.3901,2.3903,2.3896,2.3926,2.3945,2.3952,2.3865,2.3865,2.3865,2.3865,0,0,2.3313,2.3401,2.3411,2.3443,2.3508,2.3546,2.3595,2.3653,2.3681,2.3727,2.377,2.3839,2.3843,2.3877,2.3899,2.393,2.397,2.3929,2.3931,2.3937,2.4038,2.4038,2.4046,2.3978,2.398,2.3981,2.4035,0,2.3355,2.3444,2.3477,2.355,2.3597,2.3623,2.3665,2.371,2.3741,2.3785,2.3819,2.3869,2.3868,2.3889,2.3921,2.3958,2.3991,2.3954,2.402,2.4022,2.4008,2.4055,2.4054,2.4103,2.4042,2.4044,2.4044,0,2.3415,2.3465,2.3543,2.3605,2.3626,2.3663,2.3721,2.3762,2.3814,2.3835,2.3874,2.3895,2.3948,2.3937,2.4012,2.3987,2.4016,2.4038,2.4041,2.405,2.4036,2.4068,2.4119,2.4127,2.4056,2.4055,2.4054,0,2.3425,2.3511,2.3569,2.3596,2.3668,2.3695,2.3727,2.3778,2.3811,2.3861,2.3884,2.3938,2.3969,2.4011,2.4047,2.4035,2.412,2.4111,2.414,2.4139,2.4158,2.4156,2.4216,2.4172,2.4172,2.4172,2.4172,0,2.3469,2.3517,2.3575,2.3611,2.3666,2.3704,2.3757,2.379,2.3836,2.388,2.3904,2.3945,2.3989,2.4036,2.4064,2.4123,2.4136,2.4155,2.4163,2.4154,2.4152,2.4175,2.4173,2.4174,2.4174,2.4173,2.4173,0,2.349,2.3531,2.3597,2.3661,2.3679,2.3716,2.3772,2.3809,2.3841,2.3896,2.3911,2.3962,2.4019,2.4059,2.4131,2.415,2.4215,2.4221,2.4198,2.4202,2.423,2.4227,2.4308,2.4322,2.4266,2.4267,2.4267,0,2.3516,2.3554,2.3623,2.3655,2.3687,2.3737,2.3772,2.3811,2.3847,2.3911,2.394,2.3999,2.4048,2.4137,2.4181,2.4237,2.4246,2.427,2.4254,2.4246,2.4249,2.4248,2.4253,2.4273,2.4273,2.4274,2.4274,0,2.356,2.3579,2.3629,2.3687,2.3729,2.3776,2.3823,2.3847,2.3895,2.3934,2.3993,2.4031,2.4107,2.4165,2.4226,2.4259,2.4275,2.4279,2.4289,2.4282,2.4268,2.4279,2.4207,2.4277,2.4277,2.4276,2.4276,2.4276,2.3586,2.3622,2.3677,2.3733,2.3773,2.3818,2.3856,2.3895,2.3944,2.401,2.4029,2.4091,2.4145,2.4228,2.4262,2.4312,2.431,2.4324,2.4328,2.4332,2.4333,2.4259,2.4323,2.4323,2.4322,2.4322,2.4322,0,2.3633,2.3671,2.3721,2.3788,2.3833,2.3845,2.3899,2.3935,2.3989,2.4038,2.4087,2.4156,2.4213,2.4262,2.4322,2.4352,2.4362,2.4367,2.4366,2.4374,2.4329,2.4316,2.4359,2.4359,2.4359,2.4359,2.4359,2.4359,2.3663,2.3725,2.3751,2.3835,2.3872,2.3933,2.3963,2.4005,2.4045,2.4121,2.417,2.4202,2.4251,2.4315,2.4369,2.4382,2.4404,2.4408,2.4423,2.4381,2.4377,2.4373,2.4361,2.4412,2.4412,2.4464,2.4465,2.4465]}]]